GW6025 Weather Reports


time (UTC)temp
C
wind
direction
speed
KPH
gust
KPH
rain 1hr
cm
rain 24hr
cm
rain mn
cm
humidity
%
barometer
mb
20260504234719 25 198 8.0 11.3 0.00 0.00 0.00 38 1006.3
20260504234216 25 266 3.2 11.3 0.00 0.00 0.00 38 1006.3
20260504233712 25 242 9.7 12.9 0.00 0.00 0.00 37 1006.2
20260504233208 25 237 6.4 22.5 0.00 0.00 0.00 37 1006.3
20260504232705 26 214 6.4 22.5 0.00 0.00 0.00 37 1006.3
20260504232202 26 181 4.8 12.9 0.00 0.00 0.00 37 1006.2
20260504231659 26 243 9.7 12.9 0.00 0.00 0.00 36 1006.3
20260504231155 26 270 8.0 12.9 0.00 0.00 0.00 36 1006.5
20260504230651 26 182 0.0 17.7 0.00 0.00 0.00 36 1006.3
20260504230150 26 205 9.7 20.9 0.00 0.00 0.00 36 1006.4
20260504225648 26 121 6.4 24.1 0.00 0.00 0.00 35 1006.3
20260504225144 26 140 3.2 16.1 0.00 0.00 0.00 36 1006.2
20260504224641 26 183 9.7 17.7 0.00 0.00 0.00 34 1006.3
20260504224138 26 187 1.6 16.1 0.00 0.00 0.00 37 1006.5
20260504223635 26 224 9.7 20.9 0.00 0.00 0.00 35 1006.5
20260504223131 27 90 4.8 14.5 0.00 0.00 0.00 37 1006.3
20260504222628 26 218 4.8 12.9 0.00 0.00 0.00 37 1006.3
20260504222125 27 240 4.8 16.1 0.00 0.00 0.00 37 1006.5
20260504221622 27 211 6.4 11.3 0.00 0.00 0.00 36 1006.3
20260504221119 27 228 3.2 12.9 0.00 0.00 0.00 36 1006.4
20260504220615 27 149 4.8 16.1 0.00 0.00 0.00 36 1006.4
20260504220113 27 260 14.5 20.9 0.00 0.00 0.00 35 1006.2
20260504215609 27 154 12.9 22.5 0.00 0.00 0.00 34 1006.5
20260504215107 27 239 12.9 16.1 0.00 0.00 0.00 34 1006.6
20260504214602 27 250 6.4 9.7 0.00 0.00 0.00 35 1006.3
20260504214059 27 204 4.8 12.9 0.00 0.00 0.00 36 1006.5
20260504213555 27 139 6.4 16.1 0.00 0.00 0.00 35 1006.5
20260504213052 27 196 6.4 29.0 0.00 0.00 0.00 35 1006.5
20260504212548 27 236 9.7 14.5 0.00 0.00 0.00 36 1006.5
20260504212046 27 154 4.8 14.5 0.00 0.00 0.00 35 1006.5
20260504211543 27 214 4.8 11.3 0.00 0.00 0.00 36 1006.5
20260504211039 27 186 4.8 14.5 0.00 0.00 0.00 35 1006.6
20260504210536 27 224 8.0 14.5 0.00 0.00 0.00 37 1006.6
20260504210033 27 142 3.2 17.7 0.00 0.00 0.00 36 1006.7
20260504205531 27 143 4.8 17.7 0.00 0.00 0.00 36 1006.7
20260504205029 27 225 4.8 12.9 0.00 0.00 0.00 37 1006.7
20260504204527 27 153 9.7 24.1 0.00 0.00 0.00 35 1006.9
20260504204026 27 152 4.8 14.5 0.00 0.00 0.00 35 1006.9
20260504203523 27 217 4.8 25.7 0.00 0.00 0.00 37 1006.9
20260504203020 27 268 11.3 17.7 0.00 0.00 0.00 37 1007.1
20260504202516 27 119 8.0 12.9 0.00 0.00 0.00 37 1007.1
20260504202013 27 231 6.4 14.5 0.00 0.00 0.00 38 1007.1
20260504201510 27 175 6.4 20.9 0.00 0.00 0.00 36 1007.4
20260504201008 27 113 8.0 14.5 0.00 0.00 0.00 36 1007.4
20260504200504 27 231 6.4 24.1 0.00 0.00 0.00 36 1007.4
20260504200000 27 348 8.0 14.5 0.00 0.00 0.00 35 1007.5
20260504195456 27 229 16.1 24.1 0.00 0.00 0.00 35 1007.7
20260504194953 27 225 4.8 12.9 0.00 0.00 0.00 36 1007.8
20260504194449 27 220 6.4 17.7 0.00 0.00 0.00 37 1008.0
20260504193945 27 232 8.0 20.9 0.00 0.00 0.00 34 1007.9
20260504193443 27 201 4.8 16.1 0.00 0.00 0.00 36 1007.9
20260504192942 27 191 16.1 25.7 0.00 0.00 0.00 35 1008.0
20260504192438 27 218 4.8 12.9 0.00 0.00 0.00 37 1008.1
20260504191937 27 224 1.6 6.4 0.00 0.00 0.00 39 1008.2
20260504191435 27 240 4.8 17.7 0.00 0.00 0.00 36 1008.3
20260504190935 27 217 6.4 16.1 0.00 0.00 0.00 35 1008.3
20260504190432 27 204 4.8 16.1 0.00 0.00 0.00 37 1008.3
20260504185928 27 140 3.2 24.1 0.00 0.00 0.00 37 1008.3
20260504185426 27 199 8.0 16.1 0.00 0.00 0.00 37 1008.4
20260504184921 27 108 8.0 22.5 0.00 0.00 0.00 35 1008.7
20260504184417 27 312 8.0 12.9 0.00 0.00 0.00 38 1008.6
20260504183914 26 216 6.4 11.3 0.00 0.00 0.00 41 1008.5
20260504183411 26 165 6.4 14.5 0.00 0.00 0.00 38 1008.5
20260504182909 26 294 14.5 20.9 0.00 0.00 0.00 37 1008.8
20260504182405 26 255 8.0 14.5 0.00 0.00 0.00 40 1009.1
20260504181902 26 245 9.7 17.7 0.00 0.00 0.00 39 1008.8
20260504181400 25 232 9.7 29.0 0.00 0.00 0.00 39 1008.9
20260504180858 25 232 9.7 17.7 0.00 0.00 0.00 39 1008.8
20260504180356 26 198 17.7 22.5 0.00 0.00 0.00 39 1009.1
20260504175854 26 171 16.1 25.7 0.00 0.00 0.00 39 1009.3
20260504175351 26 160 3.2 20.9 0.00 0.00 0.00 39 1009.0
20260504174849 26 139 14.5 25.7 0.00 0.00 0.00 38 1009.3
20260504174346 26 324 9.7 20.9 0.00 0.00 0.00 39 1009.1
20260504173843 26 205 6.4 16.1 0.00 0.00 0.00 38 1009.2
20260504173340 26 279 6.4 16.1 0.00 0.00 0.00 42 1009.5
20260504172837 26 202 6.4 14.5 0.00 0.00 0.00 39 1009.5
20260504172333 26 133 9.7 17.7 0.00 0.00 0.00 39 1009.8
20260504171829 26 147 8.0 20.9 0.00 0.00 0.00 40 1009.5
20260504171327 26 208 4.8 16.1 0.00 0.00 0.00 42 1009.6
20260504170824 26 195 8.0 12.9 0.00 0.00 0.00 41 1009.8
20260504170321 26 250 12.9 17.7 0.00 0.00 0.00 41 1009.7
20260504160239 25 185 4.8 16.1 0.00 0.00 0.00 48 1010.6
20260504150704 22 174 3.2 11.3 0.00 0.00 0.00 53 1011.0
20260504150201 22 188 8.0 14.5 0.00 0.00 0.00 51 1010.9
20260504141130 20 166 0.0 9.7 0.00 0.00 0.00 59 1011.2
20260504140627 20 135 6.4 12.9 0.00 0.00 0.00 59 1011.1
20260504140122 20 91 6.4 14.5 0.00 0.00 0.00 60 1011.1
20260504130551 17 180 1.6 9.7 0.00 0.00 0.00 67 1011.0
20260504110438 16 174 0.0 4.8 0.00 0.00 0.00 68 1009.9
20260504100355 17 163 0.0 6.4 0.00 0.00 0.00 64 1010.2
20260504081748 17 175 4.8 6.4 0.00 0.00 0.00 61 1010.4
20260504081244 17 199 1.6 4.8 0.00 0.00 0.00 61 1010.6
20260504080741 17 179 1.6 3.2 0.00 0.00 0.00 60 1010.4
20260504080237 17 153 0.0 4.8 0.00 0.00 0.00 60 1010.5
20260504070205 16 171 3.2 6.4 0.00 0.00 0.00 59 1011.0
20260504060125 16 190 3.2 3.2 0.00 0.00 0.00 58 1011.8
20260504050554 16 169 0.0 1.6 0.00 0.00 0.00 58 1012.2
20260504045547 16 154 0.0 3.2 0.00 0.00 0.00 57 1011.9
20260504045043 16 162 1.6 3.2 0.00 0.00 0.00 57 1012.2
20260504044540 16 163 1.6 3.2 0.00 0.00 0.00 57 1012.1
20260504044037 16 161 1.6 3.2 0.00 0.00 0.00 56 1012.0
20260504043534 16 157 0.0 6.4 0.00 0.00 0.00 56 1012.1
20260504043032 17 153 1.6 1.6 0.00 0.00 0.00 56 1012.0
20260504042528 17 157 1.6 3.2 0.00 0.00 0.00 56 1012.1
20260504042025 17 162 0.0 3.2 0.00 0.00 0.00 56 1012.1
20260504041521 17 152 1.6 3.2 0.00 0.00 0.00 55 1012.1
20260504041017 17 140 3.2 3.2 0.00 0.00 0.00 54 1012.0
20260504040515 17 165 0.0 3.2 0.00 0.00 0.00 54 1012.0
20260504040012 17 148 1.6 4.8 0.00 0.00 0.00 55 1012.0
20260504035509 17 170 3.2 4.8 0.00 0.00 0.00 54 1012.1
20260504035005 17 159 1.6 3.2 0.00 0.00 0.00 54 1012.0
20260504034503 17 162 1.6 3.2 0.00 0.00 0.00 54 1012.2
20260504033959 17 148 1.6 3.2 0.00 0.00 0.00 53 1012.3
20260504033457 17 157 0.0 3.2 0.00 0.00 0.00 53 1012.1
20260504032954 17 160 0.0 3.2 0.00 0.00 0.00 53 1012.3
20260504032451 17 171 1.6 3.2 0.00 0.00 0.00 53 1012.4
20260504031948 17 154 1.6 3.2 0.00 0.00 0.00 53 1012.5
20260504031445 17 161 0.0 3.2 0.00 0.00 0.00 53 1012.5
20260504030941 17 167 0.0 0.0 0.00 0.00 0.00 54 1012.5
20260504030438 17 167 0.0 1.6 0.00 0.00 0.00 55 1012.5
20260504025934 16 154 0.0 1.6 0.00 0.00 0.00 56 1012.6
20260504025431 16 164 0.0 0.0 0.00 0.00 0.00 57 1012.5
20260504024928 16 164 0.0 1.6 0.00 0.00 0.00 54 1012.4
20260504024425 17 169 0.0 0.0 0.00 0.00 0.00 55 1012.4
20260504023922 17 171 0.0 0.0 0.00 0.00 0.00 55 1012.5
20260504023419 17 171 0.0 0.0 0.00 0.00 0.00 55 1012.3
20260504022914 17 171 0.0 0.0 0.00 0.00 0.00 54 1012.4
20260504022411 17 171 0.0 0.0 0.00 0.00 0.00 56 1012.2
20260504021908 17 171 0.0 0.0 0.00 0.00 0.00 55 1012.2
20260504021405 17 171 0.0 0.0 0.00 0.00 0.00 55 1012.4
20260504020902 17 171 0.0 0.0 0.00 0.00 0.00 54 1012.4
20260504020359 17 171 0.0 0.0 0.00 0.00 0.00 53 1012.4
20260504015855 17 171 0.0 0.0 0.00 0.00 0.00 52 1012.2
20260504015351 17 171 0.0 0.0 0.00 0.00 0.00 52 1012.2
20260504014847 17 171 0.0 0.0 0.00 0.00 0.00 51 1012.2
20260504014343 17 171 0.0 0.0 0.00 0.00 0.00 50 1012.1
20260504013841 18 171 0.0 0.0 0.00 0.00 0.00 50 1012.0
20260504013339 18 171 0.0 0.0 0.00 0.00 0.00 48 1012.0
20260504012835 18 171 0.0 0.0 0.00 0.00 0.00 48 1012.0
20260504012333 19 171 0.0 0.0 0.00 0.00 0.00 46 1012.0
20260504011830 19 171 0.0 0.0 0.00 0.00 0.00 44 1011.9
20260504011327 20 171 0.0 0.0 0.00 0.00 0.00 43 1011.9
20260504010823 20 157 0.0 1.6 0.00 0.00 0.00 43 1012.0
20260504010318 20 168 0.0 3.2 0.00 0.00 0.00 41 1012.0
20260504005815 20 160 0.0 0.0 0.00 0.00 0.00 41 1012.0
20260504005312 20 161 0.0 0.0 0.00 0.00 0.00 41 1012.0
20260504004810 21 165 1.6 1.6 0.00 0.00 0.00 41 1012.0
20260504004307 21 163 0.0 3.2 0.00 0.00 0.00 40 1012.0
20260504003803 21 180 1.6 1.6 0.00 0.00 0.00 39 1012.2
20260504003300 21 165 1.6 3.2 0.00 0.00 0.00 38 1011.9
20260504002757 22 173 1.6 1.6 0.00 0.00 0.00 37 1012.0
20260504002254 22 170 0.0 1.6 0.00 0.00 0.00 37 1012.1
20260504001752 22 181 3.2 6.4 0.00 0.00 0.00 36 1012.0
20260504001248 22 150 1.6 3.2 0.00 0.00 0.00 36 1012.1
20260504000745 22 206 1.6 4.8 0.00 0.00 0.00 36 1011.9
20260504000242 23 164 1.6 9.7 0.00 0.00 0.00 35 1012.1
20260503235740 23 172 1.6 6.4 0.00 0.00 0.00 35 1012.2
20260503235237 23 162 1.6 4.8 0.00 0.00 0.00 35 1012.3